Location: Ohmer (historical)
(38.0096°N, 122.0227°W)
Time: 00:44:04
(UTC+00:00)

Cosmos 2219 - Pass Details

Date: 14 February 2026
Orbit: 832 x 859 km, 71.1° (Epoch: 10 March)

Event Time Altitude Azimuth Distance (km) Brightness Sun altitude
Rises 13:15:31 0° 342° (NNW) 3,432 6.2 -21.0°
Reaches altitude 10° 13:18:04 10° 348° (NNW) 2,489 5.5 -20.5°
Maximum altitude 13:23:37 51° 64° (ENE) 1,058 4.0 -19.4°
Drops below altitude 10° 13:29:06 10° 140° (SE) 2,457 6.2 -18.3°
Sets 13:31:36 0° 145° (SE) 3,384 6.9 -17.8°
